STARLINK-3986 (52623 NORAD) Tracking and Keplerian Element Data

This shows tracking and keplerian element data for the satellite.

Feedback or suggestion? Click here.




ElementValue
Catalog52623
NameSTARLINK-3986
Epoch Orbit130
Epoch Day167.08334491
Epoch Year2022
RAAN280.0109
Inclination53.2142
Eccentricity0.0001566
Argument of Perigee33.9055
Mean Anonmoly358.615
Mean Motion15.7321976
Decay Rate0.00060049
L11 52623U 22052AB 22167.08334491 .00060049 00000+0 42885-3 0 9997
L22 52623 53.2142 280.0109 0001566 33.9055 358.6150 15.73219760 1303

Live tracking and technical data element details for STARLINK-3986 (NORAD 52623). STARLINK-3986 can be tracked NOW for your location showing map with azimuth and elevation plus other details from your city location.

Track the satellite on the map from your city or location and see movement details for azimuth, elevation, latitude, longitude, range, height, and movement on the map or in text.







IsCatalogInMostPopularTable: catalog: 52623, numindb: 1
Update: records affected: 1



GetName: 52623 STARLINK-3986

Hit Count: updated at: Mon, 27 Jun 2022 04:35:31 GMT